Muskegon, MI

9:00 AM EDT on September 19, 2017 (GMT -0400)
Muskegon County

Weather History for KMKG - December, 2012

Change the Weather History Date:

Sunday, December 9, 2012

  Actual Average Record
Temperature  
Mean Temperature 34 °F 32 °F  
Max Temperature 35 °F 37 °F 55 °F (1946)
Min Temperature 32 °F 27 °F 1 °F (1995)
Degree Days  
Heating Degree Days 31 33  
Month to date heating degree days 210 288  
Since 1 July heating degree days 1510 1655  
Cooling Degree Days 0 0  
Month to date cooling degree days 0 0  
Year to date cooling degree days 925 566  
Moisture  
Dew Point 28 °F    
Average Humidity 77    
Maximum Humidity 85    
Minimum Humidity 69    
Precipitation  
Precipitation 0.10 in 0.09 in 0.69 in (2009)
Month to date precipitation 0.44 0.85  
Year to date precipitation 28.99 31.79  
Snow  
Snow 0.10 in 0.90 in 10.70 in (1995)
Month to date snowfall 0.6 6.9  
Since 1 July snowfall 1.4 13.1  
Snow Depth 0.00 in    
Sea Level Pressure  
Sea Level Pressure 29.92 in    
Wind  
Wind Speed 11 mph (East)    
Max Wind Speed 18 mph    
Max Gust Speed 28 mph    
Visibility 6 miles    
Events Rain , Snow    
T = Trace of Precipitation, MM = Missing Value Source: NWS Daily Summary

Daily Weather History Graph

Daily Weather History Graph

Search for Another Location

Airport or City:

Trip Planner

Search our weather history database for the weather conditions in past years. The results will help you decide how hot, cold, wet, or windy it might be!

Date:

Astronomy

Dec. 09, 2012 Rise Set
Actual Time 8:05 AM EST 5:09 PM EST
Civil Twilight 7:33 AM EST 5:41 PM EST
Nautical Twilight 6:57 AM EST 6:17 PM EST
Astronomical Twilight 6:22 AM EST 6:52 PM EST
Moon 3:32 AM EST (12/9) 2:20 PM EST (12/9)
Length of Visible Light 10h 08m
Length of Day
9h 04m
Waning Crescent, 19% of the Moon is Illuminated
Dec 9
Waning Crescent
Dec 13
New
Dec 20
First Quarter
Dec 28
Full
Jan 4
Last Quarter

Hourly Weather History & Observations

Time (EST) Temp. Windchill Dew Point Humidity Pressure Visibility Wind Dir Wind Speed Gust Speed Precip Events Conditions
12:55 AM 32.0 °F 25.6 °F 26.1 °F 79% 30.19 in 10.0 mi East 6.9 mph - N/A   Clear
1:55 AM 32.0 °F 25.6 °F 25.0 °F 75% 30.18 in 10.0 mi East 6.9 mph - N/A   Clear
2:55 AM 32.0 °F 24.8 °F 25.0 °F 75% 30.18 in 10.0 mi East 8.1 mph - N/A   Partly Cloudy
3:55 AM 32.0 °F 26.4 °F 25.0 °F 75% 30.17 in 10.0 mi East 5.8 mph - N/A   Clear
4:55 AM 32.0 °F 24.8 °F 25.0 °F 75% 30.16 in 10.0 mi East 8.1 mph - N/A   Partly Cloudy
5:55 AM 32.0 °F 23.6 °F 25.0 °F 75% 30.15 in 10.0 mi East 10.4 mph - N/A   Overcast
6:55 AM 32.0 °F 23.0 °F 25.0 °F 75% 30.12 in 10.0 mi East 11.5 mph - N/A   Overcast
7:55 AM 33.1 °F 24.9 °F 25.0 °F 72% 30.11 in 10.0 mi East 10.4 mph - N/A   Overcast
8:33 AM 33.8 °F 24.3 °F 24.8 °F 70% 30.07 in 10.0 mi East 13.8 mph - 0.00 in   Overcast
8:55 AM 33.1 °F 24.9 °F 25.0 °F 72% 30.09 in 10.0 mi East 10.4 mph - 0.00 in   Overcast
9:55 AM 34.0 °F 24.2 °F 26.1 °F 73% 30.07 in 10.0 mi East 15.0 mph - N/A   Overcast
10:55 AM 34.0 °F 26.0 °F 27.0 °F 75% 30.06 in 10.0 mi East 10.4 mph 20.7 mph N/A   Overcast
11:55 AM 35.1 °F 24.8 °F 27.0 °F 72% 30.01 in 10.0 mi East 17.3 mph 24.2 mph N/A   Overcast
12:55 PM 35.1 °F 25.9 °F 27.0 °F 72% 29.95 in 5.0 mi East 13.8 mph - 0.00 in Snow Light Snow
1:33 PM 33.8 °F 23.9 °F 28.4 °F 81% 29.89 in 2.5 mi ENE 15.0 mph 27.6 mph 0.01 in Snow Light Snow
1:44 PM 33.8 °F 23.5 °F 28.4 °F 81% 29.88 in 5.0 mi ENE 16.1 mph - 0.01 in Snow Light Snow
1:55 PM 34.0 °F 23.0 °F 27.0 °F 75% 29.90 in 8.0 mi ENE 18.4 mph 24.2 mph 0.01 in Snow Light Snow
2:21 PM 33.8 °F 23.9 °F 26.6 °F 75% 29.86 in 2.5 mi ENE 15.0 mph 23.0 mph 0.00 in Snow Light Snow
2:29 PM 33.8 °F 24.3 °F 26.6 °F 75% 29.86 in 3.0 mi ENE 13.8 mph 20.7 mph 0.00 in Snow Light Snow
2:47 PM 33.8 °F 23.9 °F 28.4 °F 81% 29.85 in 4.0 mi ENE 15.0 mph - 0.00 in Rain Light Freezing Rain
2:55 PM 33.1 °F 23.4 °F 28.9 °F 85% 29.87 in 2.0 mi East 13.8 mph - 0.02 in Rain , Snow Light Freezing Rain
3:01 PM 33.8 °F 25.3 °F 28.4 °F 81% 29.85 in 1.8 mi East 11.5 mph - 0.00 in Snow Light Snow
3:15 PM 33.8 °F 25.3 °F 28.4 °F 81% 29.84 in 1.8 mi ENE 11.5 mph - 0.02 in Snow Light Snow
3:18 PM 33.8 °F 25.3 °F 30.2 °F 87% 29.84 in 2.0 mi ENE 11.5 mph - 0.02 in Snow Light Snow
3:30 PM 33.8 °F 25.8 °F 30.2 °F 87% 29.85 in 1.2 mi East 10.4 mph - 0.03 in Snow Light Snow
3:55 PM 33.1 °F 23.4 °F 30.0 °F 89% 29.86 in 1.5 mi East 13.8 mph - 0.05 in Snow Light Snow
4:45 PM 33.8 °F 24.3 °F 30.2 °F 87% 29.82 in 1.5 mi East 13.8 mph - 0.00 in   Overcast
4:55 PM 34.0 °F 23.8 °F 30.0 °F 85% 29.84 in 1.5 mi East 16.1 mph 21.9 mph 0.00 in   Overcast
5:21 PM 33.8 °F 24.8 °F 30.2 °F 87% 29.81 in 1.5 mi ENE 12.7 mph - 0.00 in Rain Light Freezing Rain
5:33 PM 33.8 °F 24.3 °F 30.2 °F 87% 29.81 in 2.0 mi ENE 13.8 mph - 0.00 in Rain Light Freezing Rain
5:55 PM 33.1 °F 24.4 °F 30.0 °F 89% 29.82 in 2.0 mi East 11.5 mph - 0.01 in Rain Light Freezing Rain
6:55 PM 33.1 °F 24.9 °F 28.9 °F 85% 29.79 in 2.0 mi ENE 10.4 mph - 0.01 in Rain Light Freezing Rain
7:03 PM 33.8 °F 25.3 °F 28.4 °F 81% 29.76 in 5.0 mi East 11.5 mph - 0.00 in Rain Light Freezing Rain
7:22 PM 32.0 °F 23.0 °F 28.4 °F 87% 29.75 in 6.0 mi East 11.5 mph 21.9 mph 0.00 in Rain Light Freezing Rain
7:48 PM 32.0 °F 23.6 °F 28.4 °F 87% 29.76 in 10.0 mi East 10.4 mph - 0.00 in   Overcast
7:55 PM 32.0 °F 24.2 °F 28.9 °F 88% 29.78 in 10.0 mi East 9.2 mph - 0.00 in   Overcast
8:18 PM 32.0 °F 23.0 °F 28.4 °F 87% 29.74 in 7.0 mi East 11.5 mph - N/A   Overcast
8:55 PM 32.0 °F 24.2 °F 28.9 °F 88% 29.75 in 7.0 mi East 9.2 mph - N/A   Overcast
9:55 PM 32.0 °F 28.7 °F 28.9 °F 88% 29.73 in 10.0 mi East 3.5 mph - N/A   Overcast
10:55 PM 32.0 °F 26.4 °F 28.9 °F 88% 29.71 in 5.0 mi East 5.8 mph - N/A   Overcast
11:20 PM 32.0 °F 27.5 °F 28.4 °F 87% 29.68 in 6.0 mi ENE 4.6 mph - N/A   Overcast
11:55 PM 32.0 °F 26.4 °F 28.9 °F 88% 29.69 in 7.0 mi East 5.8 mph - N/A   Overcast